sat.trackr.live / text

‹ back to catalog

KAKUSHIN RISING OBJECT C

NORAD 68794 · 2026-088C

PAYLOAD ACTIVE UNKNOWN

§ Identity

Operator
Country
JPN
Launch date
2026-04-23
Launch site
RLLB
Launch vehicle
Mass (kg)
RCS (m²)

External: N2YO · Heavens-Above · Gunter

§ Orbital elements

Epoch: 2026-05-25T03:57:34.603776Z

Period
95.55 min
Inclination
97.5039°
Eccentricity
0.0013376
Mean motion
15.07063652 rev/d
Perigee alt
535.9 km
Apogee alt
554.4 km
Semi-major
6,923.3 km
B*
2.9381e-4
RAAN
295.0332°
Arg perigee
169.8732°
Mean anomaly
190.2768°
Rev number
482

§ Raw data

KAKUSHIN RISING OBJECT C1 68794U 26088C   26145.16498384  .00004354  00000+0  29381-3 0  99902 68794  97.5039 295.0332 0013376 169.8732 190.2768 15.07063652  4821

JSON: /api/v1/satellites/68794 · /tle

For live sub-satellite position, see the globe view (requires WebGL).

§ Visibility from observer

Set your observer location to see the next 7 days of passes ≥ 10°. The values pass through the URL so the page stays shareable.

No JS? Fill the form by hand. The geolocation button needs JavaScript.